{"data":{"norad_id":58937,"epoch":"2026-05-25T03:57:44.048160Z","epoch_age_seconds":54054,"freshness":"FRESH","line1":"1 58937U 24027G   26145.16509315  .00000544  00000+0  30498-4 0  9995","line2":"2 58937  53.1610 314.6433 0001026  86.2031 273.9087 15.30198432129030","mean_motion":15.30198432,"eccentricity":0.0001026,"inclination_deg":53.161,"raan_deg":314.6433,"arg_perigee_deg":86.2031,"mean_anomaly_deg":273.9087,"bstar":3.0498e-5,"rev_number":12903,"period_min":94.10544213654,"perigee_km":474.51659678602,"apogee_km":475.92290559136,"semimajor_km":6853.3567511887,"source":"CELESTRAK","updated_at":"2026-05-25T13:38:18.789313Z"}}